Regional Weather Roundup
Issued by NWS

Home | Current Version | Previous Version | Graphics & Text | Print | Product List | Glossary On
Versions: 1 2 3 4 5 6 7 8 9 10 11 12 13 14 15 16 17 18 19 20 21 22 23 24 25 26 27 28 29 30 31 32 33 34 35 36 37 38 39 40 41 42 43 44 45 46 47 48 49 50
000
ASUS43 KIND 300859
RWRIN

WEATHER ROUNDUP FOR INDIANA
NATIONAL WEATHER SERVICE INDIANAPOLIS IN
500 AM EDT MON MAR 30 2015

NOTE: "FAIR" INDICATES FEW OR NO CLOUDS BELOW 12,000 FEET WITH NO
SIGNIFICANT WEATHER AND/OR OBSTRUCTIONS TO VISIBILITY.

* - STATION DOES NOT REPORT WEATHER SUCH AS PRECIPITATION OR FOG.

+ - STATION NOT QUALITY CONTROLLED BY THE NATIONAL WEATHER SERVICE.
    USE DATA WITH CAUTION...ESPECIALLY DEWPOINT AND RELATIVE
    HUMIDITY OBSERVATIONS.

INZ001>003-010>013-019-020-301000-
NORTHWEST INDIANA

CITY           SKY/WX    TMP DP  RH WIND       PRES   REMARKS
GARY /AIRPORT/ CLEAR     35  28  75 W3        29.98R
KNOX *+          N/A     34  28  80 SW7       29.96S WCI  28

$$

LMZ046-743>745-301000-
SOUTHERN LAKE MICHIGAN

STATION/POSITION TIME  TEMP WIND        PRES
                       AIR  DIR/SP/G
                 (UTC) (F)  (DEG/KT/KT) (MB)
BURNS HARBOR     0800   39  250/  9/ 10 1015.2S
MICHIGAN CITY    0800   38  220/ 12/ 13   N/A

$$

INZ004-005-014>016-021>024-301000-
NORTH CENTRAL INDIANA

CITY           SKY/WX    TMP DP  RH WIND       PRES   REMARKS
GOSHEN         CLEAR     36  29  75 W12       29.93R
SOUTH BEND     MOCLDY    40  31  70 NW9       29.95R
WARSAW +       CLEAR     34  30  86 W9        29.94S WCI  26

$$

INZ006>009-017-018-025>027-301000-
NORTHEAST INDIANA

CITY           SKY/WX    TMP DP  RH WIND       PRES   REMARKS
ANGOLA *+      CLEAR     37  28  70 W9        29.89R
AUBURN +       CLEAR     37  30  75 W6        29.92R
FORT WAYNE     PTCLDY    36  30  79 W12       29.94S

$$

INZ028-029-035-036-043>045-051>053-301000-
WEST CENTRAL INDIANA

CITY           SKY/WX    TMP DP  RH WIND       PRES   REMARKS
CRAWFORDSVL +  CLEAR     37  31  80 MISG      30.00S
GREENCASTLE +  CLEAR     39  34  81 W5        30.01S
LAFAYETTE      CLEAR     36  33  89 W5        30.00S
TERRE HAUTE    CLEAR     40  37  89 W7        30.03F

$$

INZ030>032-037>040-046>048-054>057-064-065-301000-
CENTRAL INDIANA

CITY           SKY/WX    TMP DP  RH WIND       PRES   REMARKS
CP ATTERBURY + CLEAR     41  36  81 W5        30.00S
FRANKFORT +    CLEAR     34  34 100 SW8       30.01S WCI  27
GREENWOOD *+   CLEAR     39  32  75 W5        29.99F
INDIANAPOLIS   CLEAR     36  32  85 W8        29.98S
-EAGLE CREEK   CLEAR     40  35  83 W7        29.99S
KOKOMO *+        N/A     36  30  80 W7        29.98S
MT COMFORT *+  CLEAR     36  28  75 W7        29.99S
SHELBYVILLE    CLEAR     41  32  70 W7        29.98F

$$

INZ033-034-041-042-049-050-058-059-301000-
EAST CENTRAL INDIANA

CITY           SKY/WX    TMP DP  RH WIND       PRES   REMARKS
MUNCIE         MOCLDY    40  33  76 NW13      29.97R

$$

INZ060-061-067>069-081>083-085>088-301000-
SOUTHWEST INDIANA

CITY           SKY/WX    TMP DP  RH WIND       PRES   REMARKS
EVANSVILLE     CLEAR     50  40  68 NW7       30.06S
HUNTINGBURG *+ CLEAR     46  37  71 NW8       30.04S

$$

INZ062-063-066-070>080-084-089>092-301000-
SOUTH CENTRAL AND SOUTHEAST INDIANA

CITY           SKY/WX    TMP DP  RH WIND       PRES   REMARKS
BLOOMINGTON    CLEAR     43  39  86 NW7       30.00F
SEYMOUR +      CLEAR     43  39  87 W3        30.01S

$$



USA.gov is the U.S. government's official web portal to all federal, state and local government web resources and services.